Find Starlink 5016

NORAD ID: 56143 Int'l Des: 2023-046 Owner: SPXS Country: US Constellation: starlink operational
LEOCIRCULAR

Aktuelle Ansicht

3D-Globus wird geladen...

Über Starlink 5016

Beschreibung wird geladen...

Nächste Überflüge

Passes for default location (London). Set your location on the main map for personalized predictions.

Höhenverlauf

Loading altitude history...

Zweizeiliger Elementsatz

1 56143U 23046BD 26149.14005159 .00027200 00000-0 13866-2 0 9998
2 56143 42.9992 60.3443 0001696 218.8464 141.2261 15.16270165174419
Epoch: 29. Mai 2026 • Age: 21 hours

Aktueller Status

Höhe 520.9 km
Geschwindigkeit 7.61 km/s
Subsatellitenpunkt 43.01°N, 101.22°W
Startdatum 29. März 2023
Alter 3.1 years
Typ internet

Technische Details

Klassifizierung Payload
Masse 305.00 kg
Trockenmasse 290.00 kg
Gesamtmasse 305.00 kg
Länge 0.20 m
Durchmesser 2.80 m
Spannweite 9.00 m
Form Box + pan
Hersteller SPXS
Bus-Typ Starlink
Phasenstatus In Orbit
Besitzer/Staat SPXS/US

Most Searched